GW3763 Weather Reports


Display with metric or nautical units.
time (UTC)temp
F
wind
direction
speed
MPH
gust
MPH
rain 1hr
in
rain 24hr
in
rain mn
in
humidity
%
barometer
mb
20260506091200 0 211 2.0 2.0 0.00 0.00 0.00 1004.5
20260506090658 0 207 1.0 1.0 0.00 0.00 0.00 1004.5
20260506090154 0 207 0.0 0.0 0.00 0.00 0.00 1004.7
20260506085651 0 207 1.0 2.0 0.00 0.00 0.00 1004.7
20260506085147 0 207 1.0 2.0 0.00 0.00 0.00 1005.0
20260506084644 0 207 1.0 1.0 0.00 0.00 0.00 1005.0
20260506084141 0 207 2.0 2.0 0.00 0.00 0.00 1005.1
20260506083638 0 207 0.0 2.0 0.00 0.00 0.00 1005.2
20260506083136 0 207 1.0 2.0 0.00 0.00 0.00 1005.2
20260506082632 0 207 0.0 0.0 0.00 0.00 0.00 1005.0
20260506082128 0 207 0.0 0.0 0.00 0.00 0.00 1005.0
20260506081626 0 207 0.0 0.0 0.00 0.00 0.00 1004.6
20260506081124 0 207 0.0 0.0 0.00 0.00 0.00 1004.8
20260506080621 0 207 0.0 0.0 0.00 0.00 0.00 1004.6
20260506080117 0 208 0.0 0.0 0.00 0.00 0.00 1004.8
20260506073101 0 191 2.0 6.0 0.00 0.00 0.00 1004.8
20260506072558 0 197 1.0 4.0 0.00 0.00 0.00 1004.9
20260506072056 0 200 2.0 2.0 0.00 0.00 0.00 1004.9
20260506071553 0 205 0.0 2.0 0.00 0.00 0.00 1004.8
20260506071051 0 196 2.0 3.0 0.00 0.00 0.00 1005.0
20260506070548 0 203 1.0 2.0 0.00 0.00 0.00 1004.8
20260506062022 0 209 0.0 1.0 0.00 0.00 0.00 1005.3
20260506061518 0 211 0.0 0.0 0.00 0.00 0.00 1005.5
20260506061016 0 211 0.0 0.0 0.00 0.00 0.00 1005.5
20260506060514 0 213 0.0 0.0 0.00 0.00 0.00 1005.6
20260506050943 0 208 0.0 0.0 0.00 0.00 0.00 1006.2
20260506050441 0 208 0.0 0.0 0.00 0.00 0.00 1006.3
20260506044931 0 210 0.0 0.0 0.00 0.00 0.00 1006.2
20260506044429 0 211 0.0 0.0 0.00 0.00 0.00 1006.3
20260506043925 0 209 0.0 2.0 0.00 0.00 0.00 1006.3
20260506043423 0 197 0.0 0.0 0.00 0.00 0.00 1006.3
20260506042920 0 212 0.0 0.0 0.00 0.00 0.00 1006.4
20260506042420 0 210 0.0 2.0 0.00 0.00 0.00 1006.3
20260506041918 0 202 3.0 6.0 0.00 0.00 0.00 1006.4
20260506041415 0 207 0.0 0.0 0.00 0.00 0.00 1006.7
20260506040912 0 203 2.0 2.0 0.00 0.00 0.00 1006.6
20260506040409 0 214 0.0 1.0 0.00 0.00 0.00 1006.8
20260506035905 0 208 1.0 3.0 0.00 0.05 0.05 1006.7
20260506035403 0 208 2.0 2.0 0.00 0.05 0.05 1006.6
20260506034859 0 190 3.0 4.0 0.00 0.05 0.05 1006.8
20260506034358 0 206 1.0 2.0 0.00 0.05 0.05 1006.8
20260506033854 0 193 1.0 2.0 0.00 0.05 0.05 1006.7
20260506033351 0 216 0.0 0.0 0.00 0.05 0.05 1006.6
20260506032848 0 216 0.0 2.0 0.00 0.05 0.05 1006.6
20260506032344 0 215 0.0 3.0 0.00 0.05 0.05 1006.7
20260506031841 0 218 2.0 2.0 0.00 0.05 0.05 1006.5
20260506031339 0 207 0.0 1.0 0.00 0.05 0.05 1006.6
20260506030836 0 215 1.0 3.0 0.00 0.05 0.05 1006.6
20260506030334 0 222 3.0 4.0 0.00 0.05 0.05 1006.6
20260506025831 0 204 2.0 2.0 0.00 0.05 0.05 1006.3
20260506025327 0 210 3.0 3.0 0.00 0.05 0.05 1006.5
20260506024824 0 212 0.0 0.0 0.00 0.05 0.05 1006.4
20260506024321 0 205 1.0 2.0 0.00 0.05 0.05 1006.6
20260506023817 0 205 0.0 0.0 0.00 0.05 0.05 1006.6
20260506023314 0 205 0.0 1.0 0.00 0.05 0.05 1006.4
20260506022811 0 209 0.0 0.0 0.00 0.05 0.05 1006.2
20260506022309 0 208 0.0 1.0 0.00 0.05 0.05 1006.4
20260506021807 0 209 1.0 1.0 0.00 0.05 0.05 1006.3
20260506021303 0 209 0.0 0.0 0.00 0.05 0.05 1006.2
20260506020800 0 209 0.0 0.0 0.00 0.05 0.05 1006.4
20260506020258 0 209 0.0 0.0 0.00 0.05 0.05 1006.1
20260506015755 0 209 0.0 0.0 0.00 0.05 0.05 1006.1
20260506015252 0 209 0.0 0.0 0.00 0.05 0.05 1006.2
20260506014749 0 209 0.0 0.0 0.00 0.05 0.05 1006.1
20260506014246 0 209 0.0 1.0 0.00 0.05 0.05 1006.1
20260506013743 0 209 1.0 2.0 0.00 0.05 0.05 1006.2
20260506013240 0 209 1.0 2.0 0.00 0.05 0.05 1006.2
20260506012736 0 209 1.0 1.0 0.00 0.05 0.05 1005.9
20260506012233 0 209 0.0 0.0 0.00 0.05 0.05 1005.9
20260506011731 0 209 0.0 1.0 0.00 0.05 0.05 1005.9
20260506011227 0 208 1.0 1.0 0.00 0.05 0.05 1005.8
20260506010725 0 208 1.0 2.0 0.00 0.05 0.05 1005.7
20260506010222 0 208 0.0 1.0 0.00 0.05 0.05 1005.7
20260506005720 0 208 1.0 2.0 0.00 0.05 0.05 1005.8
20260506005216 0 208 1.0 2.0 0.00 0.05 0.05 1005.8
20260506004712 0 209 0.0 0.0 0.00 0.05 0.05 1005.7
20260506004210 0 209 0.0 0.0 0.00 0.05 0.05 1005.7
20260506003706 0 208 0.0 2.0 0.00 0.05 0.05 1005.8
20260506003202 0 207 1.0 2.0 0.00 0.05 0.05 1005.7
20260506002658 0 202 1.0 3.0 0.00 0.05 0.05 1005.7
20260506002154 0 216 2.0 2.0 0.00 0.05 0.05 1005.5
20260506001650 0 217 0.0 0.0 0.00 0.05 0.05 1005.5
20260506001148 0 217 0.0 0.0 0.00 0.05 0.05 1005.7
20260506000645 0 216 1.0 2.0 0.00 0.05 0.05 1005.7
20260506000142 0 216 0.0 2.0 0.00 0.05 0.05 1005.7
20260505235640 0 216 1.0 2.0 0.00 0.05 0.05 1005.7
20260505235137 0 216 2.0 2.0 0.00 0.05 0.05 1005.7
20260505234634 0 217 2.0 2.0 0.00 0.05 0.05 1005.6
20260505234130 0 217 1.0 2.0 0.00 0.05 0.05 1005.5
20260505233628 0 217 1.0 2.0 0.00 0.05 0.05 1005.3
20260505233125 0 218 0.0 0.0 0.00 0.05 0.05 1005.6
20260505232623 0 218 0.0 0.0 0.00 0.05 0.05 1005.6
20260505232120 0 218 0.0 0.0 0.00 0.05 0.05 1005.5
20260505231617 0 218 0.0 1.0 0.00 0.05 0.05 1005.4
20260505231116 0 218 0.0 0.0 0.00 0.05 0.05 1005.3
20260505230613 0 218 0.0 0.0 0.00 0.05 0.05 1005.4
20260505230109 0 218 0.0 0.0 0.00 0.05 0.05 1005.4
20260505225606 0 218 0.0 0.0 0.00 0.05 0.05 1005.6
20260505225102 0 218 0.0 1.0 0.00 0.05 0.05 1005.2
20260505224559 0 218 1.0 2.0 0.00 0.05 0.05 1005.3
20260505224056 0 218 2.0 3.0 0.00 0.05 0.05 1005.3
20260505223554 0 217 1.0 2.0 0.00 0.05 0.05 1005.2
20260505223049 0 215 0.0 2.0 0.00 0.05 0.05 1005.0
20260505222546 0 207 0.0 1.0 0.00 0.05 0.05 1005.2
20260505222042 0 224 2.0 3.0 0.00 0.05 0.05 1005.2
20260505221539 0 233 4.0 7.0 0.00 0.05 0.05 1005.2
20260505221036 0 223 4.0 4.0 0.00 0.05 0.05 1005.1
20260505220533 0 228 3.0 4.0 0.00 0.05 0.05 1004.8
20260505220031 0 205 1.0 2.0 0.00 0.05 0.05 1004.5
20260505215529 0 210 1.0 2.0 0.00 0.05 0.05 1004.5
20260505215026 0 211 0.0 0.0 0.00 0.05 0.05 1004.3
20260505214524 0 211 0.0 0.0 0.00 0.05 0.05 1004.2
20260505214021 0 211 1.0 3.0 0.00 0.05 0.05 1004.3
20260505213519 0 211 1.0 2.0 0.00 0.05 0.05 1004.2
20260505213015 0 217 1.0 1.0 0.00 0.05 0.05 1004.2
20260505212511 0 207 2.0 2.0 0.00 0.05 0.05 1004.5
20260505212008 0 209 2.0 3.0 0.00 0.05 0.05 1004.3
20260505211506 0 201 2.0 3.0 0.05 0.05 0.05 1004.5
20260505211002 0 246 4.0 6.0 0.05 0.05 0.05 1004.8
20260505210459 0 233 4.0 6.0 0.07 0.04 0.04 1004.9
20260505205955 0 219 0.0 1.0 0.07 0.04 0.04 1004.7
20260505205454 0 207 1.0 3.0 0.00 0.03 0.03 1004.7
20260505204950 0 214 1.0 2.0 0.00 0.03 0.03 1004.5
20260505204449 0 208 1.0 2.0 0.00 0.03 0.03 1004.2
20260505203946 0 213 1.0 1.0 0.00 0.03 0.03 1004.2
20260505203442 0 213 0.0 0.0 0.00 0.03 0.03 1004.2
20260505202938 0 208 2.0 3.0 0.00 0.03 0.03 1004.2
20260505202435 0 213 2.0 3.0 0.00 0.03 0.03 1004.1
20260505201931 0 208 1.0 2.0 0.19 0.03 0.03 1004.2
20260505201428 0 194 2.0 4.0 0.19 0.03 0.03 1004.2
20260505200926 0 249 5.0 7.0 0.00 0.00 0.00 1004.6
20260505200423 0 208 0.0 3.0 0.00 0.00 0.00 1004.1
20260505195919 0 214 1.0 7.0 0.00 0.00 0.00 1003.9
20260505195416 0 219 4.0 11.0 0.00 0.00 0.00 1003.8
20260505194913 0 201 5.0 11.0 0.00 0.00 0.00 1003.7
20260505194411 0 214 2.0 7.0 0.00 0.00 0.00 1003.7
20260505193911 0 230 5.0 8.0 0.00 0.00 0.00 1003.8
20260505193409 0 225 1.0 8.0 0.00 0.00 0.00 1003.7
20260505192907 0 224 1.0 7.0 0.00 0.00 0.00 1003.7
20260505192405 0 223 1.0 7.0 0.00 0.00 0.00 1003.4
20260505191902 0 187 4.0 7.0 0.00 0.00 0.00 1003.6
20260505191400 0 227 2.0 4.0 0.00 0.00 0.00 1003.6
20260505190857 0 203 8.0 13.0 0.00 0.00 0.00 1003.7
20260505190352 0 224 8.0 21.0 0.00 0.00 0.00 1003.8
20260505185848 0 220 3.0 11.0 0.00 0.00 0.00 1003.8
20260505185345 0 224 5.0 6.0 0.00 0.00 0.00 1004.1
20260505184841 0 231 4.0 13.0 0.00 0.00 0.00 1004.0
20260505184338 0 224 7.0 14.0 0.00 0.00 0.00 1004.2
20260505183835 0 222 4.0 9.0 0.00 0.00 0.00 1004.3
20260505183332 0 228 8.0 15.0 0.00 0.00 0.00 1004.1
20260505182829 0 225 5.0 11.0 0.00 0.00 0.00 1004.5
20260505182325 0 210 3.0 9.0 0.00 0.00 0.00 1004.5
20260505181822 0 179 3.0 10.0 0.00 0.00 0.00 1004.5
20260505181320 0 253 4.0 7.0 0.00 0.00 0.00 1004.6
20260505180816 0 249 3.0 9.0 0.00 0.00 0.00 1004.8
20260505180312 0 213 5.0 9.0 0.00 0.00 0.00 1004.8
20260505175809 0 213 3.0 7.0 0.00 0.00 0.00 1004.9
20260505175306 0 246 5.0 9.0 0.00 0.00 0.00 1005.1
20260505174802 0 240 5.0 14.0 0.00 0.00 0.00 1005.1
20260505174259 0 216 2.0 16.0 0.00 0.00 0.00 1005.1
20260505173755 0 235 6.0 18.0 0.00 0.00 0.00 1005.2
20260505173252 0 232 4.0 14.0 0.00 0.00 0.00 1005.2
20260505172749 0 207 6.0 8.0 0.00 0.00 0.00 1005.1
20260505172246 0 237 7.0 21.0 0.00 0.00 0.00 1004.9
20260505171746 0 211 5.0 7.0 0.00 0.00 0.00 1004.9
20260505171243 0 235 2.0 14.0 0.00 0.00 0.00 1004.7
20260505170740 0 233 10.0 14.0 0.00 0.00 0.00 1004.7
20260505170237 0 212 11.0 14.0 0.00 0.00 0.00 1004.9
20260505165732 0 222 4.0 13.0 0.00 0.00 0.00 1004.9
20260505165228 0 255 7.0 9.0 0.00 0.00 0.00 1005.0
20260505164724 0 216 4.0 18.0 0.00 0.00 0.00 1004.8
20260505164221 0 216 6.0 9.0 0.00 0.00 0.00 1005.2
20260505163719 0 220 3.0 14.0 0.00 0.00 0.00 1005.1
20260505163218 0 219 3.0 16.0 0.00 0.00 0.00 1005.4
20260505162714 0 264 6.0 15.0 0.00 0.00 0.00 1005.6
20260505162212 0 229 9.0 14.0 0.00 0.00 0.00 1005.5
20260505161708 0 223 6.0 10.0 0.00 0.00 0.00 1005.4
20260505161206 0 231 3.0 9.0 0.00 0.00 0.00 1005.6
20260505160703 0 279 7.0 15.0 0.00 0.00 0.00 1005.6
20260505160201 0 169 8.0 10.0 0.00 0.00 0.00 1005.6
20260505153140 0 273 9.0 13.0 0.00 0.00 0.00 1005.8
20260505152637 0 218 6.0 10.0 0.00 0.00 0.00 1006.0
20260505152132 0 212 2.0 13.0 0.00 0.00 0.00 1006.1
20260505151628 0 238 6.0 15.0 0.00 0.00 0.00 1006.0
20260505151126 0 278 5.0 19.0 0.00 0.00 0.00 1006.1
20260505150621 0 222 5.0 11.0 0.00 0.00 0.00 1005.8
20260505150119 0 249 4.0 9.0 0.00 0.00 0.00 1005.8
20260505140547 0 222 1.0 9.0 0.00 0.00 0.00 1006.1
20260505125000 0 217 2.0 3.0 0.00 0.00 0.00 1006.4
20260505124457 0 200 2.0 3.0 0.00 0.00 0.00 1006.4
20260505123953 0 210 1.0 2.0 0.00 0.00 0.00 1006.5
20260505123450 0 217 1.0 3.0 0.00 0.00 0.00 1006.4
20260505122946 0 218 2.0 2.0 0.00 0.00 0.00 1006.6
20260505122443 0 201 3.0 3.0 0.00 0.00 0.00 1006.5
20260505121940 0 200 1.0 3.0 0.00 0.00 0.00 1006.4
20260505121437 0 240 1.0 3.0 0.00 0.00 0.00 1006.4
20260505120933 0 213 2.0 6.0 0.00 0.00 0.00 1006.6
20260505120430 0 216 5.0 9.0 0.00 0.00 0.00 1006.4
20260505115929 0 203 0.0 3.0 0.00 0.00 0.00 1006.4
20260505115425 0 211 1.0 8.0 0.00 0.00 0.00 1006.5
20260505114924 0 213 0.0 3.0 0.00 0.00 0.00 1006.7
20260505114419 0 223 4.0 6.0 0.00 0.00 0.00 1006.6
20260505113915 0 212 1.0 1.0 0.00 0.00 0.00 1006.6
20260505113413 0 216 1.0 6.0 0.00 0.00 0.00 1006.7
20260505112908 0 211 0.0 2.0 0.00 0.00 0.00 1006.4
20260505112406 0 199 1.0 1.0 0.00 0.00 0.00 1006.2
20260505111902 0 215 1.0 2.0 0.00 0.00 0.00 1006.3
20260505111357 0 215 0.0 2.0 0.00 0.00 0.00 1006.4
20260505110853 0 215 0.0 2.0 0.00 0.00 0.00 1006.1
20260505110351 0 214 0.0 3.0 0.00 0.00 0.00 1006.3
20260505101821 0 210 0.0 2.0 0.00 0.00 0.00 1005.7
20260505101316 0 204 3.0 3.0 0.00 0.00 0.00 1005.6
20260505100812 0 211 0.0 0.0 0.00 0.00 0.00 1005.7
20260505100309 0 204 2.0 3.0 0.00 0.00 0.00 1005.5
20260505095805 0 207 2.0 6.0 0.00 0.00 0.00 1005.6
20260505095304 0 203 2.0 2.0 0.00 0.00 0.00 1005.5
20260505094758 0 217 3.0 4.0 0.00 0.00 0.00 1005.4
20260505094255 0 203 2.0 3.0 0.00 0.00 0.00 1005.5
20260505093750 0 202 2.0 3.0 0.00 0.00 0.00 1005.4
20260505093249 0 205 1.0 2.0 0.00 0.00 0.00 1005.3
20260505092745 0 205 0.0 0.0 0.00 0.00 0.00 1005.4
20260505092244 0 205 0.0 1.0 0.00 0.00 0.00 1005.3
20260505091741 0 205 1.0 2.0 0.00 0.00 0.00 1005.3